Погода в Ставрополе

Погода в Ставрополе : погода сейчас, прогноз погоды и архив. Всё, что Вы хотите узнать о погоде в Ставрополе!

Поиск расширенной информации на нашем сайте:

Другие новости

Новости СМИ2

Главная страница сайта

Новости сайта

02.10.2013

Напоминаем, что на нашем новом сайте вы можете получить высокодетализированные прогнозы погоды по пунктам России, СНГ и мира (включающие важные для авиации метеовеличины, такие как направление и скорость ветра, видимость, явления погоды, количество и форма облачности, нижняя и верхняя граница облачности), а также ознакомиться с разнообразными материалами по авиационной метеорологии и подборкой полезных ссылок на эту тему.

Сайт Метеоцентр.Азия посвящён разработке технологий оптимизации авиаметеорологического обслуживания, включая проектирование и перспективное создание нескольких автоматизированных авиаметеорологических систем:
- система выпуска высокодетальных прогностических карт явлений погоды для нижнего воздушного пространства по России и ближнему зарубежью;
- система верификации прогнозов TAF (выпускаемых синоптиками официальных АМСГ РФ и ближнего зарубежья) и AUTOTAF (выпускаемых сайтом Метеоцентр.Азия) - выявление ошибок, онлайн-сопоставление с фактической погодой METAR, автоматическое внесение коррективов в прогнозы при резком отклонении фактической погоды от прогноза, подсчёт оправдываемости прогнозов по элементам и в целом;
- система обработки, анализа и отображения авиаметеорологической информации для применения провайдерами метеорологической информации.

Рекомендуем: кованая мебель для спальни роскошь вычурных узоров и отличный.

Погода в Ставрополе - сегодня

Время (UTC), дата Ветер
(°,м/с) 
Видим.   Явления Облачность Т
(°С)
Тd
(°С)
f(%) Тe
(°С)
Pmin
(гПа)
dP
(гПа)
Po
(мм)
O2
(г/м3)
Тmin Tmax R s Состояние
почвы
00 20.04.17 270 (З) 7-10{14}  20000 м    9/5 300 м средняя 
[Sc|Ac trans]
+2.7 -0.7 78 -1  1021.7  0.5  725  289           
03 20.04.17 260 (З) 5{10}  20000 м    9/4 600 м средняя 
[Sc|Ac trans]
+3 -0.5 78 +1  1022.2  0.5  725  289  +2.3        сухая 
06 20.04.17 280 (З) 20000 м    8/6 600 м средняя 
[Sc|Ac trans]
+5.7 -0.5 64 +5  1021.8  0.2  725  286           
09 20.04.17 010 (С) 20000 м    3/0 средняя 
[Ac trans]
+10.9 +0.9 50 +11  1019.5  -1.2  725  281           
12 20.04.17 080 (В) 20000 м    4/0 верхняя 
[Ci fib]
+13.6 +1.3 43 +14  1017.4  -1.5  723  277           
15 20.04.17 070 (В) 20000 м    3/0 верхняя 
[Ci fib]
+11.1 +3 57 +10  1017.2  -0.6  723  279    +14       
18 20.04.17 070 (В) 20000 м    3/0 средняя 
[Ac trans]
+4.7 +2.1 83 +3  1018.6  0.1  723  286           
21 20.04.17 100 (В) 20000 м    3/0 средняя 
[Ac trans]
+3.5 +2 90 +1  1017.2  -1.6  722  287           
00 21.04.17 120 (ЮВ) 10 км    3/0 средняя 
[Ac trans]
+3.9 +2.3 89 +2  1014.8  -2.1  720  286           
03 21.04.17 130 (ЮВ) 20000 м    8/3 600 м средняя 
[Sc|Ac trans]
+5.3 +3 85 +3  1012.6  -1.9  719  284  +3.4        сухая 
06 21.04.17 140 (ЮВ) 4{14}  20000 м    10/4 600 м кучево-дожд., средняя 
[Cb calv|Ac und]
+9.2 +3.9 69 +8  1012.2  0.4  719  280           
09 21.04.17 150 (ЮВ) 3{11}  20000 м    10/4 1000 м кучево-дожд., средняя 
[Cb calv|Ac und]
+11.8 +5.3 64 +12  1012.2  0.6  719  277           
12 21.04.17 110 (В) 20000 м  {ливн. осадки}  9/4 1000 м кучево-дожд., средняя 
[Cb calv|Ac trans]
+11 +6.1 72 +12  1012.8  0.4  720  278           
15 21.04.17 300 (СЗ) 7-11{11}  10 км  слаб. ливневой дождь  10/6 300 м кучево-дожд., средняя 
[Cb cap|Ac und]
+7.3 +5.9 91 +5  1013.8  0.2  720  281    +12     
18 21.04.17 290 (З) 7-11{16}  10 км  слаб. ливневой дождь  10/8 200 м кучево-дожд., средняя 
[Cb cap|Ac und]
+3.5 +2 90 1015.8  1.2  721  286           
21 21.04.17 290 (З) 3{11}  20000 м  слаб. ливневой дождь  10/6 300 м кучево-дожд., средняя 
[Cb cap|Ac und]
+0.6 -0.3 94 -1  1016.3  -0.2  721  290           
00 22.04.17 260 (З) 20000 м  в посл. час ливневой дождь  10/4 600 м кучево-дожд., средняя 
[Cb calv|Ac und]
+3.1 +2 92 +2  1013.7  -1.9  719  286           
03 22.04.17 260 (З) 9-14{14}  20000 м    6/3 300 м средняя 
[Sc diur, vesp|Ac trans]
+3.7 +1 82 1012.9  -0.7  719  286  +0.5    10    влажная 
06 22.04.17 250 (З) 13-21{21}  20000 м    8/4 600 м средняя 
[Sc|Ac trans]
+6.8 +0.4 64 +3  1013.5  1.1  720  283           
09 22.04.17 260 (З) 17-23{26}  20000 м  в посл. час ливневой дождь  8/5 600 м кучево-дожд., средняя 
[Cb calv|Ac trans]
+8.2 +0.1 57 +4  1014.4  1.1  721  282           
12 22.04.17 270 (З) 13-19{26}  20000 м  {ливн. осадки}  10/5 600 м кучево-дожд., средняя 
[Cb calv|Ac und]
+6.4 -0.5 61 +2  1017.6  2.7  723  284           
15 22.04.17 270 (З) 10-16{21}  20000 м    8/3 1000 м верхняя 
[Sc diur, vesp|Ci fib]
+7.4 -0.3 58 +4  1017.9  0.4  723  284    +8.9  0.3     
18 22.04.17 300 (СЗ) 7-11{16}  20000 м    4/0 верхняя 
[Ci fib]
+5.3 +0.1 69 +3  1018.7  0.4  723  286           
21 22.04.17 230 (ЮЗ) 2{11}  20000 м    6/0 верхняя 
[Ci fib]
+4.4 +0.3 75 +4  1019.2  0.4  723  287           
00 23.04.17 150 (ЮВ) 20000 м    8/0 средняя, верхняя 
[Ac trans|Ci fib]
+4.1 +0.9 80 +4  1017.4  -1.7  722  286           
Время (UTC), дата Ветер
(°,м/с) 
Видим.   Явления Облачность Т
(°С)
Тd
(°С)
f(%) Тe
(°С)
Pmin
(гПа)
dP
(гПа)
Po
(мм)
O2
(г/м3)
Тmin Tmax R s Состояние
почвы

Для получения пояснительной информации подведите курсор к названию столбца.

ПОГОДА в Ставрополе - архив

Всё, что Вы хотите узнать о погоде в Ставрополе - удобно и подробно!

Выберите нужную дату (начиная с 1 января 2015* года) и нажмите кнопку "Найти".
Будут отображены архивные сводки погоды по пункту Ставрополь, начиная с указанной даты.


Отображать данные в формате CSV (для использования в таблицах Excel)


Внимание! Наш архив погоды предназначен исключительно для личного некоммерческого использования в познавательных целях. Если Вам необходимы официальные справки о состоянии погоды (для производственных, юридических, коммерческих и т.п. целей), обращайтесь в органы Росгидромета.

*Примечание: данная дата относится к архиву по метеостанциям СССР (Россия, СНГ, Балтия).
Архив по метеостанциям Зарубежной Европы и Азии (кроме Китая) хранится 10 дней, по другим регионам земного шара (Китай, Африка, Америка, Австралия, Океания) - 1 день.

Ставрополь - район местоположения метеостанции


Название, широта, долгота, высота метеостанции:
Ставрополь 45.1°ш. 42.1°д. 452 м над ур. моря [Российская Федерация]

Дополнительная информация

В oтличие oт бoльшинства пoгoдных сайтoв мы публикуем пoдрoбную метеoинфoрмацию в детальнoм прoфессиoнальнoм фoрмате.

Характеристики температуры и влажнoсти вoздуха измеряются на высoте 2 м в тени вдали oт зданий и деревьев.
Скoрoсть ветра измеряется на высoте 10 м (на урoвне рoста челoвека скoрoсть ветра ниже в 1.5-2 раза). Если метеoстанция нахoдится в гoрoде или в лесу, тo скoрoсть ветра занижена на 2-4 м/с пo сравнению с oткрытым местoм. Скoрoсть ветра над акватoриями крупных рек и oзёр, а также на вершинах хoлмoв на 2-5 м/с выше, чем в oбычных услoвиях.
Атмoсфернoе давление в разных тoчках местнoсти мoжет значительнo oтличаться oт давления на метеoстанции, в зависимoсти oт услoвий рельефа (при пoдъёме на 10 м давление пoнижается примернo на 1 мм рт.ст.).